This is the latest recevied weather packets stored in our database for station/object N3WPH. If no packets are shown the sender has not sent any weather packets the latest 10 day(s).
| Time | Temp. | Humidity | Pressure | Rain* | Wind** | Luminosity | Snow |
|---|---|---|---|---|---|---|---|
| 1777687564 | 7.78° C | 97% | 1012.3 hPa | 0 mm | - | 0 W/m² | - |
| 1777687260 | 7.78° C | 97% | 1012.4 hPa | 0 mm | - | 0 W/m² | - |
| 1777686958 | 7.78° C | 97% | 1012.2 hPa | 0 mm | - | 0 W/m² | - |
| 1777686654 | 7.78° C | 97% | 1012.3 hPa | 0 mm | - | 0 W/m² | - |
| 1777686351 | 7.78° C | 96% | 1012.2 hPa | 1.78 mm | - | 0 W/m² | - |
| 1777686049 | 7.78° C | 96% | 1012.2 hPa | 1.78 mm | - | 0 W/m² | - |
| 1777685744 | 7.78° C | 96% | 1012.3 hPa | 0 mm | - | 0 W/m² | - |
| 1777685440 | 7.78° C | 96% | 1011.9 hPa | 0 mm | - | 0 W/m² | - |
| 1777685138 | 7.78° C | 96% | 1012.4 hPa | 0 mm | - | 0 W/m² | - |
| 1777684835 | 7.78° C | 96% | 1012.1 hPa | 1.27 mm | - | 0 W/m² | - |
| 1777684532 | 7.78° C | 96% | 1012.3 hPa | 1.27 mm | - | 0 W/m² | - |
| 1777684228 | 7.78° C | 95% | 1012.2 hPa | 0 mm | - | 0 W/m² | - |
| 1777683926 | 7.78° C | 95% | 1012.4 hPa | 0 mm | - | 0 W/m² | - |
| 1777683622 | 7.78° C | 95% | 1012.2 hPa | 0 mm | - | 0 W/m² | - |
| 1777683320 | 8.33° C | 94% | 1012.2 hPa | 0 mm | - | 0 W/m² | - |
| 1777683018 | 8.33° C | 94% | 1012.3 hPa | 0 mm | - | 0 W/m² | - |
| 1777682713 | 8.33° C | 93% | 1012.3 hPa | 0 mm | - | 0 W/m² | - |
| 1777682410 | 8.33° C | 93% | 1012.3 hPa | 1.78 mm | - | 0 W/m² | - |
| 1777682108 | 8.33° C | 92% | 1012.2 hPa | 3.05 mm | - | 0 W/m² | - |
| 1777681804 | 8.89° C | 91% | 1012.2 hPa | 1.27 mm | - | 0 W/m² | - |
| 1777681501 | 8.89° C | 90% | 1012.2 hPa | 1.27 mm | - | 0 W/m² | - |
| 1777681198 | 8.33° C | 89% | 1012.2 hPa | 0 mm | - | 0 W/m² | - |
| 1777680896 | 8.89° C | 88% | 1011.9 hPa | 1.78 mm | - | 0 W/m² | - |
| 1777680593 | 8.89° C | 86% | 1011.9 hPa | 1.78 mm | - | 0 W/m² | - |
| 1777680292 | 8.89° C | 84% | 1012.1 hPa | 0 mm | - | 0 W/m² | - |
* Rain latest hour (hover to see other rain measurements)
** Current wind speed in m/s (hover to see current wind gust speed)